Time,TemperatureF,DewpointF,PressureIn,WindDirection,WindDirectionDegrees,WindSpeedMPH,WindSpeedGustMPH,Humidity,HourlyPrecipIn,Conditions,Clouds,dailyrainin,SolarRadiationWatts/m^2,SoftwareType,DateUTC
2013-08-13 00:01:00,68.6,67.4,29.87,North,-999,0.0,0.0,96,0.00,,,-99.99,0,WeatherLink 6.0.3,2013-08-13 04:01:00,
2013-08-13 00:02:00,68.6,67.4,29.87,WSW,242,0.0,0.0,96,0.00,,,0.00,0,Wunderground v.1.15,2013-08-13 04:02:00,
2013-08-13 00:05:00,68.6,67.4,29.86,WSW,242,0.0,0.0,96,0.00,,,0.00,0,Wunderground v.1.15,2013-08-13 04:05:00,
2013-08-13 00:11:00,68.6,67.7,29.86,WSW,242,0.0,0.0,97,0.00,,,0.00,0,Wunderground v.1.15,2013-08-13 04:11:00,
2013-08-13 00:17:00,68.6,67.7,29.86,WSW,242,0.0,0.0,97,0.00,,,0.00,0,Wunderground v.1.15,2013-08-13 04:17:00,
2013-08-13 00:23:00,68.7,67.8,29.86,WSW,242,0.0,0.0,97,0.00,,,0.00,0,Wunderground v.1.15,2013-08-13 04:23:00,
2013-08-13 00:24:00,68.7,67.8,29.86,WSW,242,0.0,0.0,97,0.00,,,0.00,0,Wunderground v.1.15,2013-08-13 04:24:00,
2013-08-13 00:30:00,68.7,67.8,29.86,WSW,242,0.0,0.0,97,0.00,,,0.00,0,Wunderground v.1.15,2013-08-13 04:30:00,
2013-08-13 00:36:00,68.8,67.9,29.86,WSW,242,0.0,0.0,97,0.00,,,0.00,0,Wunderground v.1.15,2013-08-13 04:36:00,
2013-08-13 00:42:00,68.8,67.9,29.86,WSW,242,0.0,0.0,97,0.00,,,0.00,0,Wunderground v.1.15,2013-08-13 04:42:00,
2013-08-13 00:48:00,68.9,68.0,29.85,WSW,242,0.0,0.0,97,0.00,,,0.00,0,Wunderground v.1.15,2013-08-13 04:48:00,
2013-08-13 00:54:00,68.9,68.0,29.84,WSW,242,0.0,0.0,97,0.00,,,0.00,0,Wunderground v.1.15,2013-08-13 04:54:00,
2013-08-13 01:00:00,68.9,68.0,29.84,WSW,242,0.0,0.0,97,0.00,,,0.00,0,Wunderground v.1.15,2013-08-13 05:00:00,
2013-08-13 01:06:00,68.9,68.0,29.84,WSW,242,0.0,0.0,97,0.00,,,0.00,0,Wunderground v.1.15,2013-08-13 05:06:00,
2013-08-13 01:11:00,68.9,68.0,29.83,WSW,242,0.0,0.0,97,0.00,,,0.00,0,Wunderground v.1.15,2013-08-13 05:11:00,
2013-08-13 01:16:00,69.0,68.1,29.83,WSW,242,0.0,0.0,97,0.00,,,0.00,0,Wunderground v.1.15,2013-08-13 05:16:00,
2013-08-13 01:21:00,69.1,68.2,29.83,WSW,242,0.0,0.0,97,0.00,,,0.00,0,Wunderground v.1.15,2013-08-13 05:21:00,
2013-08-13 01:26:00,69.1,68.2,29.82,WSW,242,0.0,0.0,97,0.00,,,0.00,0,Wunderground v.1.15,2013-08-13 05:26:00,
2013-08-13 01:31:00,69.2,68.3,29.82,WSW,242,0.0,0.0,97,0.00,,,0.00,0,Wunderground v.1.15,2013-08-13 05:31:00,
2013-08-13 01:37:00,69.2,68.3,29.82,WSW,242,0.0,0.0,97,0.00,,,0.00,0,Wunderground v.1.15,2013-08-13 05:37:00,
2013-08-13 01:43:00,69.2,68.3,29.82,WSW,242,0.0,0.0,97,0.00,,,0.00,0,Wunderground v.1.15,2013-08-13 05:43:00,
2013-08-13 01:48:00,69.2,68.3,29.81,WSW,242,0.0,0.0,97,0.00,,,0.00,0,Wunderground v.1.15,2013-08-13 05:48:00,
2013-08-13 01:54:00,69.2,68.3,29.81,WSW,242,0.0,0.0,97,0.00,,,0.00,0,Wunderground v.1.15,2013-08-13 05:54:00,
2013-08-13 02:00:00,69.3,68.4,29.81,WSW,242,0.0,0.0,97,0.00,,,0.00,0,Wunderground v.1.15,2013-08-13 06:00:00,
2013-08-13 02:05:00,69.4,68.5,29.81,WSW,242,0.0,0.0,97,0.00,,,0.00,0,Wunderground v.1.15,2013-08-13 06:05:00,
2013-08-13 02:10:00,69.5,68.6,29.81,WSW,242,0.0,0.0,97,0.00,,,0.00,0,Wunderground v.1.15,2013-08-13 06:10:00,
2013-08-13 02:16:00,69.6,68.7,29.81,WSW,242,0.0,0.0,97,0.00,,,0.00,0,Wunderground v.1.15,2013-08-13 06:16:00,
2013-08-13 02:22:00,69.6,68.7,29.81,WSW,242,0.0,0.0,97,0.00,,,0.00,0,Wunderground v.1.15,2013-08-13 06:22:00,
2013-08-13 02:27:00,69.5,68.6,29.81,WSW,242,0.0,0.0,97,0.00,,,0.00,0,Wunderground v.1.15,2013-08-13 06:27:00,
2013-08-13 02:33:00,69.5,68.6,29.81,WSW,242,0.0,0.0,97,0.00,,,0.00,0,Wunderground v.1.15,2013-08-13 06:33:00,
2013-08-13 02:39:00,69.4,68.5,29.81,WSW,242,0.0,0.0,97,0.00,,,0.00,0,Wunderground v.1.15,2013-08-13 06:39:00,
2013-08-13 02:44:00,69.4,68.5,29.81,WSW,242,0.0,0.0,97,0.00,,,0.00,0,Wunderground v.1.15,2013-08-13 06:44:00,
2013-08-13 02:50:00,69.4,68.5,29.81,WSW,242,0.0,0.0,97,0.00,,,0.00,0,Wunderground v.1.15,2013-08-13 06:50:00,
2013-08-13 02:56:00,69.3,68.4,29.81,WSW,242,0.0,0.0,97,0.00,,,0.01,0,Wunderground v.1.15,2013-08-13 06:56:00,
2013-08-13 03:01:00,69.3,68.4,29.81,WSW,247,0.0,3.0,97,0.01,,,-99.99,0,WeatherLink 6.0.3,2013-08-13 07:01:00,
2013-08-13 03:07:00,69.2,68.3,29.82,WSW,242,0.0,0.0,97,0.00,,,0.01,0,Wunderground v.1.15,2013-08-13 07:07:00,
2013-08-13 03:12:00,69.2,68.3,29.81,WSW,242,0.0,0.0,97,0.00,,,0.01,0,Wunderground v.1.15,2013-08-13 07:12:00,
2013-08-13 03:17:00,69.2,68.3,29.81,WSW,242,0.0,0.0,97,0.00,,,0.01,0,Wunderground v.1.15,2013-08-13 07:17:00,
2013-08-13 03:23:00,69.1,68.2,29.81,WSW,242,0.0,0.0,97,0.00,,,0.01,0,Wunderground v.1.15,2013-08-13 07:23:00,
2013-08-13 03:29:00,68.9,67.7,29.82,WSW,242,0.0,0.0,96,0.00,,,0.01,0,Wunderground v.1.15,2013-08-13 07:29:00,
2013-08-13 03:34:00,68.8,67.6,29.82,WSW,242,0.0,0.0,96,0.00,,,0.01,0,Wunderground v.1.15,2013-08-13 07:34:00,
2013-08-13 03:40:00,68.6,67.4,29.82,WSW,242,0.0,0.0,96,0.00,,,0.01,0,Wunderground v.1.15,2013-08-13 07:40:00,
2013-08-13 03:45:00,68.3,67.1,29.82,WSW,242,0.0,0.0,96,0.00,,,0.01,0,Wunderground v.1.15,2013-08-13 07:45:00,
2013-08-13 03:51:00,68.1,66.9,29.81,WSW,242,0.0,0.0,96,0.00,,,0.01,0,Wunderground v.1.15,2013-08-13 07:51:00,
2013-08-13 03:57:00,67.9,66.7,29.81,WSW,242,0.0,0.0,96,0.00,,,0.01,0,Wunderground v.1.15,2013-08-13 07:57:00,
2013-08-13 04:02:00,67.7,66.5,29.81,WSW,242,0.0,0.0,96,0.00,,,0.01,0,Wunderground v.1.15,2013-08-13 08:02:00,
2013-08-13 04:08:00,67.6,66.4,29.81,WSW,242,0.0,0.0,96,0.00,,,0.01,0,Wunderground v.1.15,2013-08-13 08:08:00,
2013-08-13 04:13:00,67.5,66.3,29.81,WSW,242,0.0,0.0,96,0.00,,,0.01,0,Wunderground v.1.15,2013-08-13 08:13:00,
2013-08-13 04:18:00,67.4,66.2,29.81,WSW,242,0.0,0.0,96,0.00,,,0.01,0,Wunderground v.1.15,2013-08-13 08:18:00,
2013-08-13 04:24:00,67.3,66.1,29.81,WSW,242,0.0,0.0,96,0.00,,,0.01,0,Wunderground v.1.15,2013-08-13 08:24:00,
2013-08-13 04:30:00,67.2,66.0,29.80,WSW,242,0.0,0.0,96,0.00,,,0.01,0,Wunderground v.1.15,2013-08-13 08:30:00,
2013-08-13 04:35:00,67.1,65.9,29.81,WSW,242,0.0,0.0,96,0.00,,,0.01,0,Wunderground v.1.15,2013-08-13 08:35:00,
2013-08-13 04:40:00,67.1,65.9,29.80,WSW,242,0.0,0.0,96,0.00,,,0.01,0,Wunderground v.1.15,2013-08-13 08:40:00,
2013-08-13 04:45:00,67.0,65.8,29.80,WSW,242,0.0,0.0,96,0.00,,,0.01,0,Wunderground v.1.15,2013-08-13 08:45:00,
2013-08-13 04:51:00,67.0,65.8,29.80,WSW,242,0.0,0.0,96,0.00,,,0.01,0,Wunderground v.1.15,2013-08-13 08:51:00,
2013-08-13 04:57:00,66.9,65.7,29.80,WSW,242,0.0,0.0,96,0.00,,,0.01,0,Wunderground v.1.15,2013-08-13 08:57:00,
2013-08-13 05:02:00,66.9,65.7,29.80,WSW,242,0.0,0.0,96,0.00,,,0.01,0,Wunderground v.1.15,2013-08-13 09:02:00,
2013-08-13 05:08:00,66.8,65.6,29.80,WSW,242,0.0,0.0,96,0.00,,,0.01,0,Wunderground v.1.15,2013-08-13 09:08:00,
2013-08-13 05:14:00,66.8,65.6,29.80,WSW,242,0.0,0.0,96,0.00,,,0.01,0,Wunderground v.1.15,2013-08-13 09:14:00,
2013-08-13 05:20:00,66.6,65.4,29.80,WSW,242,0.0,0.0,96,0.00,,,0.01,0,Wunderground v.1.15,2013-08-13 09:20:00,
2013-08-13 05:26:00,66.6,65.4,29.79,WSW,242,0.0,0.0,96,0.00,,,0.01,0,Wunderground v.1.15,2013-08-13 09:26:00,
2013-08-13 05:31:00,66.6,65.7,29.79,WSW,242,0.0,0.0,97,0.00,,,0.01,0,Wunderground v.1.15,2013-08-13 09:31:00,
2013-08-13 05:37:00,66.6,65.7,29.79,WSW,242,0.0,0.0,97,0.00,,,0.01,0,Wunderground v.1.15,2013-08-13 09:37:00,
2013-08-13 05:43:00,66.5,65.6,29.79,WSW,242,0.0,0.0,97,0.00,,,0.01,0,Wunderground v.1.15,2013-08-13 09:43:00,
2013-08-13 05:48:00,66.5,65.6,29.78,WSW,242,0.0,0.0,97,0.00,,,0.01,0,Wunderground v.1.15,2013-08-13 09:48:00,
2013-08-13 05:54:00,66.5,65.6,29.78,WSW,242,0.0,0.0,97,0.00,,,0.01,0,Wunderground v.1.15,2013-08-13 09:54:00,
2013-08-13 06:00:00,66.5,65.6,29.78,WSW,242,0.0,0.0,97,0.00,,,0.01,0,Wunderground v.1.15,2013-08-13 10:00:00,
2013-08-13 06:05:00,66.5,65.6,29.78,WSW,242,0.0,0.0,97,0.00,,,0.01,0,Wunderground v.1.15,2013-08-13 10:05:00,
2013-08-13 06:10:00,66.5,65.6,29.79,WSW,242,0.0,0.0,97,0.00,,,0.01,0,Wunderground v.1.15,2013-08-13 10:10:00,
2013-08-13 06:16:00,66.5,65.6,29.79,WSW,242,0.0,0.0,97,0.00,,,0.01,0,Wunderground v.1.15,2013-08-13 10:16:00,
2013-08-13 06:21:00,66.6,65.7,29.79,WSW,242,0.0,0.0,97,0.00,,,0.01,0,Wunderground v.1.15,2013-08-13 10:21:00,
2013-08-13 06:27:00,66.6,65.7,29.79,WSW,242,0.0,0.0,97,0.00,,,0.01,0,Wunderground v.1.15,2013-08-13 10:27:00,
2013-08-13 06:33:00,66.6,65.7,29.79,WSW,242,0.0,0.0,97,0.00,,,0.01,0,Wunderground v.1.15,2013-08-13 10:33:00,
2013-08-13 06:39:00,66.7,65.8,29.79,WSW,242,0.0,0.0,97,0.00,,,0.01,0,Wunderground v.1.15,2013-08-13 10:39:00,
2013-08-13 06:45:00,66.7,65.8,29.79,WSW,242,0.0,0.0,97,0.00,,,0.01,0,Wunderground v.1.15,2013-08-13 10:45:00,
2013-08-13 06:51:00,66.7,65.8,29.79,WSW,242,0.0,0.0,97,0.00,,,0.01,5,Wunderground v.1.15,2013-08-13 10:51:00,
2013-08-13 06:56:00,66.6,65.7,29.79,WSW,242,0.0,0.0,97,0.00,,,0.01,0,Wunderground v.1.15,2013-08-13 10:56:00,
2013-08-13 07:01:00,66.7,65.8,29.80,WSW,247,0.0,1.0,97,0.00,,,-99.99,2,WeatherLink 6.0.3,2013-08-13 11:01:00,
2013-08-13 07:07:00,66.7,65.8,29.80,WSW,242,0.0,0.0,97,0.00,,,0.01,7,Wunderground v.1.15,2013-08-13 11:07:00,
2013-08-13 07:13:00,66.7,65.8,29.80,WSW,242,0.0,1.0,97,0.00,,,0.01,5,Wunderground v.1.15,2013-08-13 11:13:00,
2013-08-13 07:19:00,66.7,65.8,29.80,WSW,242,0.0,1.0,97,0.00,,,0.01,11,Wunderground v.1.15,2013-08-13 11:19:00,
2013-08-13 07:25:00,66.6,65.7,29.80,WSW,242,0.0,1.0,97,0.00,,,0.01,7,Wunderground v.1.15,2013-08-13 11:25:00,
2013-08-13 07:30:00,66.6,65.7,29.80,WSW,242,0.0,1.0,97,0.00,,,0.01,11,Wunderground v.1.15,2013-08-13 11:30:00,
2013-08-13 07:36:00,66.6,65.7,29.80,WSW,242,0.0,1.0,97,0.00,,,0.01,9,Wunderground v.1.15,2013-08-13 11:36:00,
2013-08-13 07:41:00,66.7,65.8,29.80,WSW,242,0.0,0.0,97,0.00,,,0.01,12,Wunderground v.1.15,2013-08-13 11:41:00,
2013-08-13 07:46:00,66.7,65.8,29.80,WSW,242,0.0,0.0,97,0.00,,,0.01,18,Wunderground v.1.15,2013-08-13 11:46:00,
2013-08-13 07:51:00,66.8,65.9,29.80,WSW,242,0.0,0.0,97,0.00,,,0.01,9,Wunderground v.1.15,2013-08-13 11:51:00,
2013-08-13 07:57:00,66.8,65.9,29.80,WSW,242,0.0,0.0,97,0.00,,,0.01,19,Wunderground v.1.15,2013-08-13 11:57:00,
2013-08-13 08:02:00,66.8,65.9,29.80,WSW,242,0.0,0.0,97,0.00,,,0.01,26,Wunderground v.1.15,2013-08-13 12:02:00,
2013-08-13 08:07:00,66.8,65.9,29.80,WSW,242,0.0,0.0,97,0.00,,,0.01,33,Wunderground v.1.15,2013-08-13 12:07:00,
2013-08-13 08:12:00,66.9,66.0,29.80,WSW,242,0.0,0.0,97,0.00,,,0.01,30,Wunderground v.1.15,2013-08-13 12:12:00,
2013-08-13 08:18:00,67.0,66.1,29.80,WSW,242,0.0,0.0,97,0.00,,,0.01,33,Wunderground v.1.15,2013-08-13 12:18:00,
2013-08-13 08:24:00,67.1,66.2,29.81,WSW,242,0.0,0.0,97,0.00,,,0.01,30,Wunderground v.1.15,2013-08-13 12:24:00,
2013-08-13 08:29:00,67.1,66.2,29.81,WSW,242,0.0,0.0,97,0.00,,,0.01,33,Wunderground v.1.15,2013-08-13 12:29:00,
2013-08-13 08:35:00,67.2,66.3,29.81,WSW,242,0.0,0.0,97,0.00,,,0.01,32,Wunderground v.1.15,2013-08-13 12:35:00,
2013-08-13 08:41:00,67.2,66.3,29.81,WSW,242,0.0,0.0,97,0.00,,,0.01,37,Wunderground v.1.15,2013-08-13 12:41:00,
2013-08-13 08:46:00,67.3,66.4,29.81,WSW,242,0.0,0.0,97,0.00,,,0.01,47,Wunderground v.1.15,2013-08-13 12:46:00,
2013-08-13 08:52:00,67.3,66.4,29.81,WSW,242,0.0,0.0,97,0.00,,,0.01,35,Wunderground v.1.15,2013-08-13 12:52:00,
2013-08-13 08:58:00,67.4,66.5,29.81,WSW,242,0.0,0.0,97,0.00,,,0.01,40,Wunderground v.1.15,2013-08-13 12:58:00,
2013-08-13 09:04:00,67.5,66.6,29.80,WSW,242,0.0,0.0,97,0.00,,,0.01,58,Wunderground v.1.15,2013-08-13 13:04:00,
2013-08-13 09:09:00,67.5,66.6,29.80,WSW,242,0.0,1.0,97,0.00,,,0.01,105,Wunderground v.1.15,2013-08-13 13:09:00,
2013-08-13 09:14:00,67.7,66.8,29.80,WSW,242,0.0,0.0,97,0.00,,,0.01,98,Wunderground v.1.15,2013-08-13 13:14:00,
2013-08-13 09:20:00,67.9,67.0,29.80,WSW,242,0.0,0.0,97,0.00,,,0.01,79,Wunderground v.1.15,2013-08-13 13:20:00,
2013-08-13 09:25:00,68.2,67.3,29.80,WSW,242,0.0,0.0,97,0.00,,,0.01,130,Wunderground v.1.15,2013-08-13 13:25:00,
2013-08-13 09:31:00,68.4,67.5,29.80,WSW,247,0.0,1.0,97,0.00,,,-99.99,98,WeatherLink 6.0.3,2013-08-13 13:31:00,
2013-08-13 09:36:00,68.7,67.8,29.80,WSW,242,0.0,0.0,97,0.00,,,0.01,158,Wunderground v.1.15,2013-08-13 13:36:00,
2013-08-13 09:41:00,68.9,68.0,29.80,WSW,242,0.0,0.0,97,0.00,,,0.01,146,Wunderground v.1.15,2013-08-13 13:41:00,
2013-08-13 09:47:00,69.2,68.0,29.80,WSW,242,0.0,0.0,96,0.00,,,0.01,153,Wunderground v.1.15,2013-08-13 13:47:00,
2013-08-13 09:52:00,69.4,68.2,29.81,WSW,242,0.0,0.0,96,0.00,,,0.01,160,Wunderground v.1.15,2013-08-13 13:52:00,
2013-08-13 09:58:00,69.6,68.1,29.81,WSW,240,0.0,0.0,95,0.00,,,0.01,84,Wunderground v.1.15,2013-08-13 13:58:00,
2013-08-13 10:03:00,69.7,68.2,29.81,WSW,240,0.0,0.0,95,0.00,,,0.01,111,Wunderground v.1.15,2013-08-13 14:03:00,
2013-08-13 10:09:00,69.9,68.4,29.81,WSW,240,0.0,0.0,95,0.00,,,0.01,84,Wunderground v.1.15,2013-08-13 14:09:00,
2013-08-13 10:15:00,70.0,68.5,29.81,WSW,240,0.0,1.0,95,0.00,,,0.01,128,Wunderground v.1.15,2013-08-13 14:15:00,
2013-08-13 10:20:00,70.3,68.8,29.81,WSW,240,0.0,0.0,95,0.00,,,0.01,269,Wunderground v.1.15,2013-08-13 14:20:00,
2013-08-13 10:26:00,70.7,69.2,29.81,North,5,0.0,0.0,95,0.00,,,0.01,292,Wunderground v.1.15,2013-08-13 14:26:00,
2013-08-13 10:31:00,71.3,69.8,29.80,NW,311,0.0,1.0,95,0.00,,,0.01,318,Wunderground v.1.15,2013-08-13 14:31:00,
2013-08-13 10:37:00,72.0,70.2,29.81,NW,305,0.0,1.0,94,0.00,,,0.01,220,Wunderground v.1.15,2013-08-13 14:37:00,
2013-08-13 10:43:00,72.5,70.4,29.80,WNW,287,0.0,0.0,93,0.00,,,0.01,325,Wunderground v.1.15,2013-08-13 14:43:00,
2013-08-13 10:48:00,73.0,70.9,29.80,WNW,286,0.0,1.0,93,0.00,,,0.02,281,Wunderground v.1.15,2013-08-13 14:48:00,
2013-08-13 10:54:00,73.7,70.9,29.80,South,181,0.0,1.0,91,0.00,,,0.02,246,Wunderground v.1.15,2013-08-13 14:54:00,
2013-08-13 11:00:00,74.1,71.3,29.80,South,178,0.0,2.0,91,0.00,,,0.02,323,Wunderground v.1.15,2013-08-13 15:00:00,
2013-08-13 11:05:00,74.5,71.4,29.80,South,190,0.0,2.0,90,0.00,,,0.02,172,Wunderground v.1.15,2013-08-13 15:05:00,
2013-08-13 11:10:00,74.7,71.6,29.80,SSE,167,0.0,1.0,90,0.00,,,0.02,483,Wunderground v.1.15,2013-08-13 15:10:00,
2013-08-13 11:16:00,74.9,71.1,29.80,South,178,0.0,1.0,88,0.00,,,0.02,167,Wunderground v.1.15,2013-08-13 15:16:00,
2013-08-13 11:22:00,74.7,70.9,29.80,South,186,0.0,1.0,88,0.00,,,0.02,69,Wunderground v.1.15,2013-08-13 15:22:00,
2013-08-13 11:27:00,74.4,70.3,29.80,NNW,336,0.0,1.0,87,0.00,,,0.02,95,Wunderground v.1.15,2013-08-13 15:27:00,
2013-08-13 11:33:00,74.0,70.6,29.80,West,280,0.0,1.0,89,0.00,,,0.02,229,Wunderground v.1.15,2013-08-13 15:33:00,
2013-08-13 11:38:00,74.0,70.6,29.81,NNW,339,1.0,1.0,89,0.00,,,0.02,46,Wunderground v.1.15,2013-08-13 15:38:00,
2013-08-13 11:44:00,73.5,68.7,29.82,North,355,1.0,5.0,85,0.00,,,0.02,127,Wunderground v.1.15,2013-08-13 15:44:00,
2013-08-13 11:49:00,73.2,68.4,29.82,NNW,348,1.0,5.0,85,0.00,,,0.02,158,Wunderground v.1.15,2013-08-13 15:49:00,
2013-08-13 11:54:00,73.1,68.7,29.82,NNW,348,0.0,1.0,86,0.00,,,0.02,121,Wunderground v.1.15,2013-08-13 15:54:00,
2013-08-13 12:00:00,73.0,69.6,29.82,NNW,348,0.0,0.0,89,0.00,,,0.02,207,Wunderground v.1.15,2013-08-13 16:00:00,
2013-08-13 12:05:00,73.0,69.2,29.81,NNW,348,0.0,0.0,88,0.00,,,0.02,682,Wunderground v.1.15,2013-08-13 16:05:00,
2013-08-13 12:10:00,73.5,69.1,29.81,West,273,0.0,0.0,86,0.00,,,0.02,313,Wunderground v.1.15,2013-08-13 16:10:00,
2013-08-13 12:16:00,74.1,69.3,29.81,NNW,330,0.0,0.0,85,0.00,,,0.02,169,Wunderground v.1.15,2013-08-13 16:16:00,
2013-08-13 12:22:00,74.4,69.2,29.82,North,9,1.0,3.0,84,0.00,,,0.02,227,Wunderground v.1.15,2013-08-13 16:22:00,
2013-08-13 12:27:00,74.7,68.8,29.82,North,355,1.0,3.0,82,0.00,,,0.02,362,Wunderground v.1.15,2013-08-13 16:27:00,
2013-08-13 12:32:00,75.4,70.2,29.81,NW,321,1.0,1.0,84,0.00,,,0.02,262,Wunderground v.1.15,2013-08-13 16:32:00,
2013-08-13 12:38:00,76.0,68.6,29.81,NNW,333,1.0,2.0,78,0.00,,,0.02,772,Wunderground v.1.15,2013-08-13 16:38:00,
2013-08-13 12:43:00,76.6,70.0,29.81,North,360,2.0,9.0,80,0.00,,,0.02,838,Wunderground v.1.15,2013-08-13 16:43:00,
2013-08-13 12:49:00,77.1,70.5,29.81,NNW,347,3.0,10.0,80,0.00,,,0.02,271,Wunderground v.1.15,2013-08-13 16:49:00,
2013-08-13 12:55:00,77.4,70.4,29.81,North,360,2.0,6.0,79,0.00,,,0.02,793,Wunderground v.1.15,2013-08-13 16:55:00,
2013-08-13 13:01:00,77.5,68.6,29.81,NNW,337,2.0,12.0,74,0.00,,,-99.99,735,WeatherLink 6.0.3,2013-08-13 17:01:00,
2013-08-13 13:06:00,77.8,69.2,29.80,North,355,4.0,5.0,75,0.00,,,0.02,812,Wunderground v.1.15,2013-08-13 17:06:00,
2013-08-13 13:12:00,78.2,68.0,29.80,NNW,336,4.0,9.0,71,0.00,,,0.02,809,Wunderground v.1.15,2013-08-13 17:12:00,
2013-08-13 13:18:00,78.5,68.7,29.80,NNE,13,3.0,9.0,72,0.00,,,0.02,819,Wunderground v.1.15,2013-08-13 17:18:00,
2013-08-13 13:24:00,78.9,67.9,29.79,NNW,338,1.0,4.0,69,0.00,,,0.02,835,Wunderground v.1.15,2013-08-13 17:24:00,
2013-08-13 13:29:00,78.9,67.9,29.79,North,5,2.0,6.0,69,0.00,,,0.02,824,Wunderground v.1.15,2013-08-13 17:29:00,
2013-08-13 13:34:00,78.8,66.9,29.79,North,360,4.0,9.0,67,0.00,,,0.02,844,Wunderground v.1.15,2013-08-13 17:34:00,
2013-08-13 13:40:00,78.8,66.9,29.80,North,355,4.0,4.0,67,0.00,,,0.02,863,Wunderground v.1.15,2013-08-13 17:40:00,
2013-08-13 13:46:00,78.9,67.4,29.80,North,355,2.0,5.0,68,0.00,,,0.02,896,Wunderground v.1.15,2013-08-13 17:46:00,
2013-08-13 13:52:00,79.2,67.7,29.80,WNW,300,1.0,2.0,68,0.00,,,0.02,353,Wunderground v.1.15,2013-08-13 17:52:00,
2013-08-13 13:58:00,79.2,67.3,29.80,NNW,337,1.0,3.0,67,0.00,,,0.02,299,Wunderground v.1.15,2013-08-13 17:58:00,
2013-08-13 14:03:00,78.9,66.1,29.80,NNW,337,3.0,10.0,65,0.00,,,0.02,272,Wunderground v.1.15,2013-08-13 18:03:00,
2013-08-13 14:09:00,78.5,67.9,29.80,NNE,24,4.0,10.0,70,0.00,,,0.02,939,Wunderground v.1.15,2013-08-13 18:09:00,
2013-08-13 14:14:00,78.4,66.1,29.80,NNW,338,3.0,8.0,66,0.00,,,0.02,264,Wunderground v.1.15,2013-08-13 18:14:00,
2013-08-13 14:20:00,78.3,66.0,29.80,NNE,26,3.0,3.0,66,0.00,,,0.02,997,Wunderground v.1.15,2013-08-13 18:20:00,
2013-08-13 14:26:00,78.0,66.2,29.81,North,5,6.0,15.0,67,0.00,,,0.02,214,Wunderground v.1.15,2013-08-13 18:26:00,
2013-08-13 14:31:00,76.7,66.2,29.81,NE,40,9.0,9.0,70,0.00,,,0.02,246,Wunderground v.1.15,2013-08-13 18:31:00,
2013-08-13 14:36:00,76.2,67.3,29.81,North,11,6.0,9.0,74,0.00,,,0.02,865,Wunderground v.1.15,2013-08-13 18:36:00,
2013-08-13 14:42:00,76.5,66.4,29.81,NNW,333,5.0,10.0,71,0.00,,,0.02,782,Wunderground v.1.15,2013-08-13 18:42:00,
2013-08-13 14:47:00,76.6,66.5,29.81,NNW,348,7.0,11.0,71,0.00,,,0.02,809,Wunderground v.1.15,2013-08-13 18:47:00,
2013-08-13 14:53:00,76.7,67.0,29.82,NNW,329,6.0,8.0,72,0.00,,,0.02,817,Wunderground v.1.15,2013-08-13 18:53:00,
2013-08-13 14:59:00,77.0,67.7,29.81,WNW,285,3.0,8.0,73,0.00,,,0.02,914,Wunderground v.1.15,2013-08-13 18:59:00,
2013-08-13 15:04:00,77.3,68.0,29.81,NW,324,2.0,5.0,73,0.00,,,0.02,1028,Wunderground v.1.15,2013-08-13 19:04:00,
2013-08-13 15:09:00,77.6,67.4,29.81,NNW,340,3.0,11.0,71,0.00,,,0.02,914,Wunderground v.1.15,2013-08-13 19:09:00,
2013-08-13 15:15:00,77.4,68.1,29.81,North,11,4.0,7.0,73,0.00,,,0.02,374,Wunderground v.1.15,2013-08-13 19:15:00,
2013-08-13 15:21:00,77.3,66.7,29.81,WNW,298,2.0,2.0,70,0.00,,,0.02,308,Wunderground v.1.15,2013-08-13 19:21:00,
2013-08-13 15:27:00,77.1,67.4,29.81,NNW,344,1.0,4.0,72,0.00,,,0.02,272,Wunderground v.1.15,2013-08-13 19:27:00,
2013-08-13 15:33:00,77.0,66.9,29.81,North,5,1.0,3.0,71,0.00,,,0.02,244,Wunderground v.1.15,2013-08-13 19:33:00,
2013-08-13 15:39:00,76.8,66.3,29.81,North,355,2.0,8.0,70,0.00,,,0.02,415,Wunderground v.1.15,2013-08-13 19:39:00,
2013-08-13 15:45:00,77.0,67.3,29.80,North,5,4.0,11.0,72,0.00,,,0.02,858,Wunderground v.1.15,2013-08-13 19:45:00,
2013-08-13 15:50:00,77.4,67.3,29.80,North,355,4.0,6.0,71,0.00,,,0.02,902,Wunderground v.1.15,2013-08-13 19:50:00,
2013-08-13 15:55:00,77.3,66.3,29.80,North,355,5.0,6.0,69,0.00,,,0.02,290,Wunderground v.1.15,2013-08-13 19:55:00,
2013-08-13 16:00:00,77.2,66.2,29.80,North,349,5.0,6.0,69,0.00,,,0.02,788,Wunderground v.1.15,2013-08-13 20:00:00,
2013-08-13 16:06:00,77.5,67.8,29.80,WNW,297,3.0,6.0,72,0.00,,,0.02,715,Wunderground v.1.15,2013-08-13 20:06:00,
2013-08-13 16:12:00,77.8,65.5,29.80,NW,318,2.0,6.0,66,0.00,,,0.02,193,Wunderground v.1.15,2013-08-13 20:12:00,
2013-08-13 16:17:00,77.6,66.2,29.80,NNW,336,4.0,8.0,68,0.00,,,0.02,657,Wunderground v.1.15,2013-08-13 20:17:00,
2013-08-13 16:22:00,77.5,65.7,29.80,NNW,342,5.0,8.0,67,0.00,,,0.02,719,Wunderground v.1.15,2013-08-13 20:22:00,
2013-08-13 16:28:00,77.5,65.2,29.80,NNE,23,5.0,9.0,66,0.00,,,0.02,731,Wunderground v.1.15,2013-08-13 20:28:00,
2013-08-13 16:34:00,77.8,66.8,29.80,WNW,288,4.0,5.0,69,0.00,,,0.02,749,Wunderground v.1.15,2013-08-13 20:34:00,
2013-08-13 16:39:00,77.9,65.6,29.80,NW,321,2.0,5.0,66,0.00,,,0.02,116,Wunderground v.1.15,2013-08-13 20:39:00,
2013-08-13 16:45:00,77.0,64.8,29.81,WNW,302,5.0,9.0,66,0.00,,,0.02,223,Wunderground v.1.15,2013-08-13 20:45:00,
2013-08-13 16:51:00,76.6,65.7,29.81,North,349,4.0,9.0,69,0.00,,,0.02,763,Wunderground v.1.15,2013-08-13 20:51:00,
2013-08-13 16:56:00,76.7,64.9,29.81,WNW,294,5.0,9.0,67,0.00,,,0.02,664,Wunderground v.1.15,2013-08-13 20:56:00,
2013-08-13 17:01:00,76.7,64.9,29.81,North,0,4.0,13.0,67,0.00,,,-99.99,450,WeatherLink 6.0.3,2013-08-13 21:01:00,
2013-08-13 17:07:00,76.4,65.5,29.81,WNW,298,3.0,8.0,69,0.00,,,0.02,464,Wunderground v.1.15,2013-08-13 21:07:00,
2013-08-13 17:13:00,76.1,64.8,29.82,North,355,2.0,8.0,68,0.00,,,0.02,367,Wunderground v.1.15,2013-08-13 21:13:00,
2013-08-13 17:18:00,75.8,65.3,29.82,NNE,19,3.0,11.0,70,0.00,,,0.02,385,Wunderground v.1.15,2013-08-13 21:18:00,
2013-08-13 17:24:00,75.6,65.1,29.82,NNE,17,4.0,5.0,70,0.00,,,0.02,192,Wunderground v.1.15,2013-08-13 21:24:00,
2013-08-13 17:30:00,75.4,64.5,29.82,NNW,346,3.0,9.0,69,0.00,,,0.02,130,Wunderground v.1.15,2013-08-13 21:30:00,
2013-08-13 17:36:00,75.0,65.0,29.83,NNW,334,3.0,9.0,71,0.00,,,0.02,199,Wunderground v.1.15,2013-08-13 21:36:00,
2013-08-13 17:42:00,74.7,65.1,29.82,North,355,3.0,4.0,72,0.00,,,0.02,413,Wunderground v.1.15,2013-08-13 21:42:00,
2013-08-13 17:48:00,74.6,63.8,29.83,North,350,4.0,9.0,69,0.00,,,0.02,146,Wunderground v.1.15,2013-08-13 21:48:00,
2013-08-13 17:53:00,74.2,63.8,29.83,WNW,286,5.0,5.0,70,0.00,,,0.02,172,Wunderground v.1.15,2013-08-13 21:53:00,
2013-08-13 17:59:00,73.6,63.6,29.83,NNE,12,5.0,9.0,71,0.00,,,0.02,153,Wunderground v.1.15,2013-08-13 21:59:00,
2013-08-13 18:04:00,73.1,63.1,29.83,North,355,5.0,6.0,71,0.00,,,0.02,151,Wunderground v.1.15,2013-08-13 22:04:00,
2013-08-13 18:10:00,72.8,63.2,29.83,NW,312,5.0,5.0,72,0.00,,,0.02,179,Wunderground v.1.15,2013-08-13 22:10:00,
2013-08-13 18:16:00,72.5,63.0,29.83,NE,51,4.0,9.0,72,0.00,,,0.02,171,Wunderground v.1.15,2013-08-13 22:16:00,
2013-08-13 18:22:00,72.3,62.8,29.83,NNW,336,3.0,8.0,72,0.00,,,0.02,113,Wunderground v.1.15,2013-08-13 22:22:00,
2013-08-13 18:28:00,71.9,62.4,29.83,NE,34,4.0,9.0,72,0.00,,,0.02,98,Wunderground v.1.15,2013-08-13 22:28:00,
2013-08-13 18:33:00,71.6,62.5,29.83,North,355,4.0,9.0,73,0.00,,,0.02,105,Wunderground v.1.15,2013-08-13 22:33:00,
2013-08-13 18:38:00,71.3,62.6,29.83,North,351,4.0,9.0,74,0.00,,,0.02,120,Wunderground v.1.15,2013-08-13 22:38:00,
2013-08-13 18:44:00,70.9,61.8,29.84,North,355,4.0,11.0,73,0.00,,,0.02,95,Wunderground v.1.15,2013-08-13 22:44:00,
2013-08-13 18:50:00,70.6,61.9,29.84,NW,317,4.0,4.0,74,0.00,,,0.02,79,Wunderground v.1.15,2013-08-13 22:50:00,
2013-08-13 18:55:00,70.4,61.3,29.84,NE,38,2.0,5.0,73,0.00,,,0.02,69,Wunderground v.1.15,2013-08-13 22:55:00,
2013-08-13 19:00:00,70.2,61.9,29.85,NNW,344,2.0,3.0,75,0.00,,,0.02,98,Wunderground v.1.15,2013-08-13 23:00:00,
2013-08-13 19:05:00,70.1,61.8,29.85,North,5,2.0,3.0,75,0.00,,,0.02,74,Wunderground v.1.15,2013-08-13 23:05:00,
2013-08-13 19:11:00,69.8,61.5,29.86,NNW,346,4.0,8.0,75,0.00,,,0.02,63,Wunderground v.1.15,2013-08-13 23:11:00,
2013-08-13 19:16:00,69.5,60.8,29.86,North,11,6.0,14.0,74,0.00,,,0.02,56,Wunderground v.1.15,2013-08-13 23:16:00,
2013-08-13 19:21:00,69.2,60.2,29.86,North,5,7.0,8.0,73,0.00,,,0.02,56,Wunderground v.1.15,2013-08-13 23:21:00,
2013-08-13 19:27:00,69.0,60.4,29.86,NNW,338,6.0,11.0,74,0.00,,,0.02,63,Wunderground v.1.15,2013-08-13 23:27:00,
2013-08-13 19:33:00,68.7,60.1,29.87,NW,304,4.0,9.0,74,0.00,,,0.02,54,Wunderground v.1.15,2013-08-13 23:33:00,
2013-08-13 19:38:00,68.5,59.9,29.87,North,349,5.0,9.0,74,0.00,,,0.02,56,Wunderground v.1.15,2013-08-13 23:38:00,
2013-08-13 19:44:00,68.2,59.6,29.87,NE,53,4.0,6.0,74,0.00,,,0.02,30,Wunderground v.1.15,2013-08-13 23:44:00,
2013-08-13 19:50:00,68.0,59.4,29.88,North,355,3.0,3.0,74,0.00,,,0.02,30,Wunderground v.1.15,2013-08-13 23:50:00,
2013-08-13 19:56:00,67.7,59.1,29.88,NNW,347,2.0,5.0,74,0.00,,,0.02,23,Wunderground v.1.15,2013-08-13 23:56:00,
2013-08-13 20:01:00,67.6,59.4,29.88,North,0,3.0,12.0,75,0.00,,,-99.99,36,WeatherLink 6.0.3,2013-08-14 00:01:00,
2013-08-13 20:06:00,67.5,59.7,29.88,North,360,3.0,5.0,76,0.00,,,0.02,9,Wunderground v.1.15,2013-08-14 00:06:00,
2013-08-13 20:12:00,67.3,59.5,29.88,North,360,1.0,2.0,76,0.00,,,0.02,0,Wunderground v.1.15,2013-08-14 00:12:00,
2013-08-13 20:18:00,67.2,59.4,29.89,NNW,341,2.0,4.0,76,0.00,,,0.02,0,Wunderground v.1.15,2013-08-14 00:18:00,
2013-08-13 20:23:00,67.1,59.3,29.89,NNW,333,2.0,3.0,76,0.00,,,0.02,5,Wunderground v.1.15,2013-08-14 00:23:00,
2013-08-13 20:29:00,67.0,58.1,29.89,NNW,345,3.0,6.0,73,0.00,,,0.02,0,Wunderground v.1.15,2013-08-14 00:29:00,
2013-08-13 20:34:00,66.8,57.9,29.89,NW,317,3.0,5.0,73,0.00,,,0.02,0,Wunderground v.1.15,2013-08-14 00:34:00,
2013-08-13 20:39:00,66.6,57.7,29.89,North,355,2.0,5.0,73,0.00,,,0.02,0,Wunderground v.1.15,2013-08-14 00:39:00,
2013-08-13 20:45:00,66.4,57.5,29.90,NNW,336,2.0,6.0,73,0.00,,,0.02,0,Wunderground v.1.15,2013-08-14 00:45:00,
2013-08-13 20:51:00,66.1,56.8,29.90,North,9,3.0,10.0,72,0.00,,,0.02,0,Wunderground v.1.15,2013-08-14 00:51:00,
2013-08-13 20:56:00,65.9,55.8,29.90,NW,319,4.0,10.0,70,0.00,,,0.02,0,Wunderground v.1.15,2013-08-14 00:56:00,
2013-08-13 21:01:00,65.7,56.4,29.90,North,0,3.0,13.0,72,0.00,,,-99.99,0,WeatherLink 6.0.3,2013-08-14 01:01:00,
2013-08-13 21:02:00,65.7,56.8,29.91,NNW,344,2.0,6.0,73,0.00,,,0.02,0,Wunderground v.1.15,2013-08-14 01:02:00,
2013-08-13 21:08:00,65.2,56.3,29.91,North,355,2.0,6.0,73,0.00,,,0.02,0,Wunderground v.1.15,2013-08-14 01:08:00,
2013-08-13 21:13:00,64.9,56.0,29.91,NNW,348,2.0,10.0,73,0.00,,,0.02,0,Wunderground v.1.15,2013-08-14 01:13:00,
2013-08-13 21:19:00,64.8,56.3,29.91,NNW,346,3.0,10.0,74,0.00,,,0.02,0,Wunderground v.1.15,2013-08-14 01:19:00,
2013-08-13 21:25:00,64.6,56.5,29.92,North,355,2.0,4.0,75,0.00,,,0.02,0,Wunderground v.1.15,2013-08-14 01:25:00,
2013-08-13 21:30:00,64.5,56.4,29.92,NE,43,2.0,2.0,75,0.00,,,0.02,0,Wunderground v.1.15,2013-08-14 01:30:00,
2013-08-13 21:36:00,64.3,55.8,29.92,NNE,26,3.0,4.0,74,0.00,,,0.02,0,Wunderground v.1.15,2013-08-14 01:36:00,
2013-08-13 21:42:00,64.2,55.7,29.93,North,351,4.0,9.0,74,0.00,,,0.02,0,Wunderground v.1.15,2013-08-14 01:42:00,
2013-08-13 21:48:00,63.9,55.1,29.93,NNE,24,5.0,9.0,73,0.00,,,0.02,0,Wunderground v.1.15,2013-08-14 01:48:00,
2013-08-13 21:53:00,63.7,54.9,29.93,North,360,4.0,7.0,73,0.00,,,0.02,0,Wunderground v.1.15,2013-08-14 01:53:00,
2013-08-13 21:59:00,63.4,55.0,29.94,NE,35,3.0,7.0,74,0.00,,,0.02,0,Wunderground v.1.15,2013-08-14 01:59:00,
2013-08-13 22:04:00,63.1,54.7,29.94,NNE,33,4.0,9.0,74,0.00,,,0.02,0,Wunderground v.1.15,2013-08-14 02:04:00,
2013-08-13 22:10:00,62.8,54.4,29.94,NE,34,4.0,4.0,74,0.00,,,0.02,0,Wunderground v.1.15,2013-08-14 02:10:00,
2013-08-13 22:16:00,62.5,54.5,29.94,NNW,341,3.0,4.0,75,0.00,,,0.02,0,Wunderground v.1.15,2013-08-14 02:16:00,
2013-08-13 22:22:00,62.3,54.3,29.94,NNW,346,3.0,3.0,75,0.00,,,0.02,0,Wunderground v.1.15,2013-08-14 02:22:00,
2013-08-13 22:27:00,62.1,54.4,29.94,North,5,3.0,5.0,76,0.00,,,0.02,0,Wunderground v.1.15,2013-08-14 02:27:00,
2013-08-13 22:33:00,61.8,54.2,29.95,ENE,65,1.0,2.0,76,0.00,,,0.02,0,Wunderground v.1.15,2013-08-14 02:33:00,
2013-08-13 22:39:00,61.5,53.9,29.95,NNE,15,1.0,3.0,76,0.00,,,0.02,0,Wunderground v.1.15,2013-08-14 02:39:00,
2013-08-13 22:45:00,61.2,53.9,29.95,NNW,345,1.0,5.0,77,0.00,,,0.02,0,Wunderground v.1.15,2013-08-14 02:45:00,
2013-08-13 22:50:00,60.9,53.6,29.96,NNW,346,1.0,3.0,77,0.00,,,0.02,0,Wunderground v.1.15,2013-08-14 02:50:00,
2013-08-13 22:56:00,60.8,53.5,29.96,NNE,17,2.0,5.0,77,0.00,,,0.02,0,Wunderground v.1.15,2013-08-14 02:56:00,
2013-08-13 23:01:00,60.6,53.3,29.96,North,0,1.0,7.0,77,0.00,,,-99.99,0,WeatherLink 6.0.3,2013-08-14 03:01:00,
2013-08-13 23:07:00,60.4,53.5,29.96,North,355,1.0,1.0,78,0.00,,,0.02,0,Wunderground v.1.15,2013-08-14 03:07:00,
2013-08-13 23:12:00,60.1,53.6,29.96,NNW,340,0.0,0.0,79,0.00,,,0.02,0,Wunderground v.1.15,2013-08-14 03:12:00,
2013-08-13 23:18:00,59.8,53.6,29.96,NNW,347,0.0,3.0,80,0.00,,,0.02,0,Wunderground v.1.15,2013-08-14 03:18:00,
2013-08-13 23:24:00,59.6,53.4,29.96,North,350,1.0,1.0,80,0.00,,,0.02,0,Wunderground v.1.15,2013-08-14 03:24:00,
2013-08-13 23:30:00,59.3,53.1,29.96,North,350,0.0,0.0,80,0.00,,,0.02,0,Wunderground v.1.15,2013-08-14 03:30:00,
2013-08-13 23:35:00,59.1,53.3,29.97,North,350,0.0,0.0,81,0.00,,,0.02,0,Wunderground v.1.15,2013-08-14 03:35:00,
2013-08-13 23:40:00,58.9,54.1,29.97,North,350,0.0,0.0,84,0.00,,,0.02,0,Wunderground v.1.15,2013-08-14 03:40:00,
2013-08-13 23:45:00,58.6,53.1,29.96,North,360,0.0,0.0,82,0.00,,,0.02,0,Wunderground v.1.15,2013-08-14 03:45:00,
2013-08-13 23:50:00,58.3,53.5,29.97,North,360,0.0,0.0,84,0.00,,,0.02,0,Wunderground v.1.15,2013-08-14 03:50:00,
2013-08-13 23:55:00,58.0,53.5,29.97,North,360,0.0,0.0,85,0.00,,,0.02,0,Wunderground v.1.15,2013-08-14 03:55:00,